| time (UTC) | temp F | wind direction | speed MPH | gust MPH | rain 1hr in | rain 24hr in | rain mn in | humidity % | barometer mb |
| 20260507060017 | 59 | 0 | 2.0 | 8.0 | 0.00 | 0.07 | 0.00 | 83 | 1004.7 |
| 20260507055517 | 59 | 0 | 1.0 | 5.0 | 0.00 | 0.07 | 0.00 | 83 | 1004.6 |
| 20260507055016 | 59 | 0 | 1.0 | 3.0 | 0.00 | 0.07 | 0.00 | 83 | 1004.8 |
| 20260507054516 | 59 | 0 | 1.0 | 7.0 | 0.00 | 0.07 | 0.00 | 83 | 1004.8 |
| 20260507054016 | 59 | 225 | 1.0 | 4.0 | 0.00 | 0.07 | 0.00 | 84 | 1005.2 |
| 20260507053537 | 60 | 225 | 1.0 | 3.0 | 0.00 | 0.07 | 0.00 | 85 | 1005.0 |
| 20260507053017 | 60 | 225 | 1.0 | 4.0 | 0.00 | 0.07 | 0.00 | 85 | 1004.9 |
| 20260507052517 | 60 | 225 | 1.0 | 4.0 | 0.00 | 0.07 | 0.00 | 85 | 1004.9 |
| 20260507052017 | 60 | 225 | 1.0 | 4.0 | 0.00 | 0.07 | 0.00 | 85 | 1004.7 |
| 20260507051517 | 60 | 225 | 2.0 | 4.0 | 0.00 | 0.07 | 0.00 | 86 | 1004.5 |
| 20260507051016 | 60 | 270 | 2.0 | 8.0 | 0.00 | 0.07 | 0.00 | 86 | 1004.6 |
| 20260507050516 | 60 | 225 | 2.0 | 12.0 | 0.00 | 0.07 | 0.00 | 87 | 1004.7 |
| 20260507050016 | 60 | 225 | 2.0 | 10.0 | 0.00 | 0.07 | 0.00 | 88 | 1004.7 |
| 20260507045516 | 60 | 270 | 2.0 | 5.0 | 0.00 | 0.07 | 0.00 | 89 | 1004.8 |
| 20260507045017 | 60 | 225 | 1.0 | 4.0 | 0.00 | 0.07 | 0.00 | 89 | 1004.7 |
| 20260507044516 | 61 | 225 | 1.0 | 5.0 | 0.00 | 0.07 | 0.00 | 90 | 1004.6 |
| 20260507044036 | 61 | 225 | 1.0 | 5.0 | 0.00 | 0.07 | 0.00 | 90 | 1004.6 |
| 20260507043516 | 61 | 225 | 2.0 | 7.0 | 0.00 | 0.07 | 0.00 | 90 | 1004.5 |
| 20260507043019 | 61 | 225 | 1.0 | 4.0 | 0.00 | 0.07 | 0.00 | 90 | 1004.5 |
| 20260507042516 | 61 | 225 | 1.0 | 3.0 | 0.00 | 0.07 | 0.00 | 90 | 1004.4 |
| 20260507042018 | 61 | 225 | 1.0 | 2.0 | 0.00 | 0.07 | 0.00 | 90 | 1004.4 |
| 20260507041516 | 61 | 225 | 1.0 | 2.0 | 0.00 | 0.07 | 0.00 | 90 | 1004.5 |
| 20260507041017 | 61 | 225 | 1.0 | 4.0 | 0.00 | 0.07 | 0.00 | 90 | 1004.6 |
| 20260507040516 | 61 | 225 | 1.0 | 2.0 | 0.00 | 0.07 | 0.00 | 90 | 1004.8 |
| 20260507040016 | 61 | 225 | 1.0 | 4.0 | 0.00 | 0.07 | 0.07 | 90 | 1004.9 |
| 20260507035515 | 61 | 225 | 1.0 | 4.0 | 0.00 | 0.07 | 0.07 | 90 | 1004.8 |
| 20260507035014 | 61 | 180 | 1.0 | 7.0 | 0.00 | 0.07 | 0.07 | 90 | 1004.7 |
| 20260507034538 | 60 | 180 | 1.0 | 7.0 | 0.00 | 0.07 | 0.07 | 90 | 1004.7 |
| 20260507034037 | 60 | 225 | 1.0 | 5.0 | 0.00 | 0.07 | 0.07 | 90 | 1004.6 |
| 20260507033516 | 60 | 180 | 1.0 | 5.0 | 0.00 | 0.07 | 0.07 | 90 | 1004.5 |
| 20260507033019 | 60 | 180 | 2.0 | 7.0 | 0.00 | 0.07 | 0.07 | 90 | 1004.5 |
| 20260507032516 | 60 | 180 | 2.0 | 8.0 | 0.00 | 0.07 | 0.07 | 90 | 1004.4 |
| 20260507032017 | 60 | 225 | 2.0 | 8.0 | 0.00 | 0.07 | 0.07 | 90 | 1004.4 |
| 20260507031516 | 60 | 180 | 2.0 | 4.0 | 0.00 | 0.07 | 0.07 | 90 | 1004.3 |
| 20260507031017 | 60 | 180 | 2.0 | 8.0 | 0.00 | 0.07 | 0.07 | 90 | 1004.3 |
| 20260507030517 | 60 | 203 | 1.0 | 4.0 | 0.00 | 0.07 | 0.07 | 91 | 1004.1 |
| 20260507030017 | 60 | 225 | 1.0 | 5.0 | 0.00 | 0.07 | 0.07 | 91 | 1004.1 |
| 20260507025516 | 60 | 158 | 1.0 | 5.0 | 0.00 | 0.07 | 0.07 | 90 | 1004.1 |
| 20260507025017 | 60 | 158 | 2.0 | 5.0 | 0.00 | 0.07 | 0.07 | 90 | 1004.1 |
| 20260507024517 | 60 | 225 | 1.0 | 5.0 | 0.00 | 0.07 | 0.07 | 90 | 1004.2 |
| 20260507024037 | 60 | 203 | 2.0 | 7.0 | 0.00 | 0.07 | 0.07 | 90 | 1004.4 |
| 20260507023516 | 60 | 203 | 1.0 | 5.0 | 0.00 | 0.07 | 0.07 | 90 | 1004.4 |
| 20260507023017 | 60 | 203 | 1.0 | 4.0 | 0.00 | 0.07 | 0.07 | 90 | 1004.3 |
| 20260507022516 | 60 | 225 | 1.0 | 4.0 | 0.00 | 0.07 | 0.07 | 90 | 1004.3 |
| 20260507022016 | 60 | 225 | 1.0 | 5.0 | 0.00 | 0.07 | 0.07 | 90 | 1004.2 |
| 20260507021518 | 60 | 225 | 2.0 | 6.0 | 0.00 | 0.07 | 0.07 | 90 | 1004.2 |
| 20260507021036 | 60 | 180 | 2.0 | 6.0 | 0.00 | 0.07 | 0.07 | 90 | 1004.3 |
| 20260507020537 | 60 | 225 | 2.0 | 6.0 | 0.00 | 0.07 | 0.07 | 90 | 1004.4 |
| 20260507020018 | 59 | 203 | 2.0 | 9.0 | 0.00 | 0.07 | 0.07 | 90 | 1004.3 |
| 20260507015557 | 59 | 203 | 2.0 | 6.0 | 0.00 | 0.07 | 0.07 | 90 | 1004.3 |
| 20260507015016 | 59 | 158 | 2.0 | 11.0 | 0.00 | 0.07 | 0.07 | 90 | 1004.3 |
| 20260507014516 | 59 | 135 | 3.0 | 8.0 | 0.00 | 0.07 | 0.07 | 90 | 1004.3 |
| 20260507014036 | 59 | 158 | 3.0 | 8.0 | 0.00 | 0.07 | 0.07 | 90 | 1004.4 |
| 20260507013536 | 59 | 158 | 2.0 | 12.0 | 0.00 | 0.07 | 0.07 | 90 | 1004.5 |
| 20260507013016 | 59 | 203 | 2.0 | 11.0 | 0.00 | 0.07 | 0.07 | 90 | 1004.5 |
| 20260507012516 | 59 | 158 | 2.0 | 8.0 | 0.00 | 0.07 | 0.07 | 90 | 1004.5 |
| 20260507012016 | 59 | 225 | 1.0 | 8.0 | 0.00 | 0.07 | 0.07 | 90 | 1004.6 |
| 20260507011516 | 59 | 225 | 2.0 | 7.0 | 0.00 | 0.07 | 0.07 | 90 | 1004.6 |
| 20260507011039 | 59 | 225 | 2.0 | 8.0 | 0.00 | 0.07 | 0.07 | 90 | 1004.7 |
| 20260507010517 | 59 | 203 | 2.0 | 5.0 | 0.00 | 0.07 | 0.07 | 90 | 1004.8 |
| 20260507010016 | 59 | 135 | 3.0 | 11.0 | 0.00 | 0.07 | 0.07 | 90 | 1004.8 |
| 20260507005516 | 59 | 180 | 3.0 | 11.0 | 0.01 | 0.07 | 0.07 | 90 | 1004.8 |
| 20260507005016 | 59 | 203 | 3.0 | 8.0 | 0.01 | 0.07 | 0.07 | 90 | 1004.8 |
| 20260507004516 | 59 | 225 | 2.0 | 7.0 | 0.02 | 0.07 | 0.07 | 90 | 1004.8 |
| 20260507004017 | 59 | 180 | 3.0 | 8.0 | 0.02 | 0.07 | 0.07 | 90 | 1004.8 |
| 20260507003516 | 59 | 158 | 3.0 | 11.0 | 0.02 | 0.07 | 0.07 | 90 | 1004.7 |
| 20260507003016 | 59 | 135 | 3.0 | 13.0 | 0.02 | 0.07 | 0.07 | 89 | 1004.7 |
| 20260507002536 | 59 | 135 | 3.0 | 11.0 | 0.02 | 0.07 | 0.07 | 89 | 1004.7 |
| 20260507002016 | 59 | 158 | 4.0 | 13.0 | 0.02 | 0.07 | 0.07 | 89 | 1004.6 |
| 20260507001557 | 59 | 158 | 3.0 | 12.0 | 0.02 | 0.07 | 0.07 | 89 | 1004.6 |
| 20260507001017 | 59 | 180 | 3.0 | 9.0 | 0.02 | 0.07 | 0.07 | 89 | 1004.5 |
| 20260507000516 | 59 | 135 | 4.0 | 15.0 | 0.03 | 0.07 | 0.07 | 89 | 1004.4 |
| 20260507000016 | 59 | 158 | 2.0 | 7.0 | 0.03 | 0.07 | 0.07 | 89 | 1004.4 |
| 20260506235516 | 59 | 158 | 3.0 | 11.0 | 0.02 | 0.06 | 0.06 | 89 | 1004.4 |
| 20260506235016 | 59 | 158 | 3.0 | 10.0 | 0.02 | 0.06 | 0.06 | 89 | 1004.5 |
| 20260506234517 | 59 | 158 | 3.0 | 10.0 | 0.01 | 0.05 | 0.05 | 89 | 1004.4 |
| 20260506234036 | 60 | 0 | 6.0 | 14.0 | 0.01 | 0.05 | 0.05 | 89 | 1004.4 |
| 20260506233536 | 60 | 0 | 4.0 | 11.0 | 0.01 | 0.05 | 0.05 | 89 | 1004.4 |
| 20260506233016 | 60 | 0 | 5.0 | 12.0 | 0.01 | 0.05 | 0.05 | 89 | 1004.3 |
| 20260506232536 | 60 | 0 | 4.0 | 11.0 | 0.01 | 0.05 | 0.05 | 89 | 1004.2 |
| 20260506232037 | 60 | 0 | 5.0 | 15.0 | 0.01 | 0.05 | 0.05 | 89 | 1004.3 |
| 20260506231536 | 60 | 0 | 5.0 | 19.0 | 0.01 | 0.05 | 0.05 | 89 | 1004.3 |
| 20260506231017 | 60 | 0 | 5.0 | 14.0 | 0.01 | 0.05 | 0.05 | 88 | 1004.3 |
| 20260506230537 | 60 | 0 | 6.0 | 13.0 | 0.00 | 0.04 | 0.04 | 89 | 1004.3 |
| 20260506230016 | 60 | 0 | 6.0 | 13.0 | 0.00 | 0.04 | 0.04 | 88 | 1004.3 |
| 20260506225518 | 60 | 0 | 4.0 | 14.0 | 0.01 | 0.04 | 0.04 | 88 | 1004.3 |
| 20260506225016 | 60 | 0 | 4.0 | 14.0 | 0.01 | 0.04 | 0.04 | 88 | 1004.3 |
| 20260506224516 | 61 | 0 | 6.0 | 14.0 | 0.01 | 0.04 | 0.04 | 88 | 1004.4 |
| 20260506224017 | 61 | 0 | 5.0 | 12.0 | 0.01 | 0.04 | 0.04 | 88 | 1004.5 |
| 20260506223516 | 61 | 0 | 5.0 | 16.0 | 0.02 | 0.04 | 0.04 | 88 | 1004.6 |
| 20260506223016 | 61 | 0 | 5.0 | 12.0 | 0.02 | 0.04 | 0.04 | 88 | 1004.6 |
| 20260506222516 | 61 | 0 | 5.0 | 15.0 | 0.02 | 0.04 | 0.04 | 87 | 1004.8 |
| 20260506222016 | 61 | 0 | 7.0 | 17.0 | 0.02 | 0.04 | 0.04 | 87 | 1004.8 |
| 20260506221517 | 62 | 0 | 6.0 | 14.0 | 0.02 | 0.04 | 0.04 | 87 | 1004.7 |
| 20260506221016 | 62 | 0 | 7.0 | 14.0 | 0.02 | 0.04 | 0.04 | 87 | 1005.0 |
| 20260506220516 | 62 | 0 | 4.0 | 12.0 | 0.02 | 0.04 | 0.04 | 86 | 1004.9 |
| 20260506220036 | 62 | 0 | 5.0 | 12.0 | 0.02 | 0.04 | 0.04 | 86 | 1004.9 |
| 20260506215537 | 63 | 158 | 5.0 | 11.0 | 0.01 | 0.03 | 0.03 | 86 | 1005.0 |
| 20260506215016 | 63 | 135 | 3.0 | 12.0 | 0.01 | 0.03 | 0.03 | 85 | 1005.0 |
| 20260506214516 | 63 | 158 | 4.0 | 18.0 | 0.02 | 0.03 | 0.03 | 85 | 1005.1 |
| 20260506214016 | 63 | 158 | 4.0 | 18.0 | 0.02 | 0.03 | 0.03 | 85 | 1005.1 |
| 20260506213516 | 63 | 158 | 3.0 | 12.0 | 0.01 | 0.02 | 0.02 | 84 | 1005.2 |
| 20260506213037 | 63 | 158 | 4.0 | 16.0 | 0.01 | 0.02 | 0.02 | 84 | 1005.2 |
| 20260506212516 | 63 | 158 | 5.0 | 14.0 | 0.01 | 0.02 | 0.02 | 83 | 1005.1 |
| 20260506212018 | 63 | 158 | 5.0 | 12.0 | 0.01 | 0.02 | 0.02 | 83 | 1005.1 |
| 20260506211516 | 63 | 158 | 4.0 | 12.0 | 0.01 | 0.02 | 0.02 | 83 | 1005.1 |
| 20260506211017 | 64 | 203 | 4.0 | 13.0 | 0.01 | 0.02 | 0.02 | 82 | 1005.2 |
| 20260506210516 | 63 | 0 | 5.0 | 15.0 | 0.01 | 0.02 | 0.02 | 82 | 1005.3 |
| 20260506210016 | 64 | 0 | 3.0 | 13.0 | 0.01 | 0.02 | 0.02 | 82 | 1005.4 |
| 20260506205536 | 64 | 0 | 4.0 | 15.0 | 0.01 | 0.02 | 0.02 | 81 | 1005.3 |
| 20260506205016 | 64 | 0 | 5.0 | 12.0 | 0.01 | 0.02 | 0.02 | 81 | 1005.4 |
| 20260506204517 | 64 | 0 | 5.0 | 13.0 | 0.01 | 0.01 | 0.01 | 80 | 1005.5 |
| 20260506204016 | 64 | 0 | 5.0 | 18.0 | 0.01 | 0.01 | 0.01 | 79 | 1005.5 |
| 20260506203516 | 64 | 0 | 5.0 | 18.0 | 0.01 | 0.01 | 0.01 | 79 | 1005.5 |
| 20260506203036 | 64 | 0 | 5.0 | 17.0 | 0.01 | 0.01 | 0.01 | 78 | 1005.3 |
| 20260506202516 | 64 | 0 | 5.0 | 14.0 | 0.01 | 0.01 | 0.01 | 78 | 1005.4 |
| 20260506202016 | 65 | 0 | 7.0 | 22.0 | 0.01 | 0.01 | 0.01 | 77 | 1005.3 |
| 20260506201516 | 65 | 0 | 8.0 | 16.0 | 0.01 | 0.01 | 0.01 | 76 | 1005.2 |
| 20260506201036 | 65 | 0 | 5.0 | 17.0 | 0.01 | 0.01 | 0.01 | 76 | 1005.2 |
| 20260506200537 | 65 | 0 | 7.0 | 19.0 | 0.01 | 0.01 | 0.01 | 75 | 1005.1 |
| 20260506200016 | 66 | 0 | 6.0 | 15.0 | 0.01 | 0.01 | 0.01 | 74 | 1005.2 |
| 20260506195536 | 66 | 0 | 4.0 | 14.0 | 0.01 | 0.01 | 0.01 | 73 | 1005.2 |
| 20260506195017 | 67 | 0 | 4.0 | 11.0 | 0.01 | 0.01 | 0.01 | 72 | 1005.4 |
| 20260506194536 | 67 | 0 | 6.0 | 15.0 | 0.00 | 0.00 | 0.00 | 71 | 1005.5 |
| 20260506194016 | 67 | 0 | 6.0 | 15.0 | 0.00 | 0.00 | 0.00 | 70 | 1005.6 |
| 20260506193516 | 68 | 0 | 4.0 | 13.0 | 0.00 | 0.00 | 0.00 | 69 | 1005.7 |
| 20260506193016 | 68 | 0 | 4.0 | 13.0 | 0.00 | 0.00 | 0.00 | 68 | 1005.7 |
| 20260506192516 | 68 | 0 | 7.0 | 18.0 | 0.00 | 0.00 | 0.00 | 67 | 1005.7 |
| 20260506192036 | 69 | 0 | 5.0 | 16.0 | 0.00 | 0.00 | 0.00 | 67 | 1005.6 |
| 20260506191518 | 69 | 135 | 5.0 | 19.0 | 0.00 | 0.00 | 0.00 | 65 | 1005.5 |
| 20260506191016 | 70 | 158 | 5.0 | 14.0 | 0.00 | 0.00 | 0.00 | 63 | 1005.5 |
| 20260506190516 | 70 | 0 | 4.0 | 13.0 | 0.00 | 0.00 | 0.00 | 62 | 1005.4 |
| 20260506190016 | 70 | 0 | 4.0 | 10.0 | 0.00 | 0.00 | 0.00 | 61 | 1005.4 |
| 20260506185516 | 70 | 0 | 7.0 | 15.0 | 0.00 | 0.00 | 0.00 | 60 | 1005.5 |
| 20260506185019 | 71 | 0 | 4.0 | 14.0 | 0.00 | 0.00 | 0.00 | 60 | 1005.6 |
| 20260506184516 | 71 | 0 | 5.0 | 14.0 | 0.00 | 0.00 | 0.00 | 59 | 1005.6 |
| 20260506184016 | 71 | 0 | 6.0 | 20.0 | 0.00 | 0.00 | 0.00 | 59 | 1005.6 |
| 20260506183516 | 71 | 180 | 6.0 | 16.0 | 0.00 | 0.00 | 0.00 | 59 | 1005.6 |
| 20260506183016 | 71 | 158 | 5.0 | 18.0 | 0.00 | 0.00 | 0.00 | 58 | 1005.6 |
| 20260506182536 | 72 | 158 | 6.0 | 23.0 | 0.00 | 0.00 | 0.00 | 58 | 1005.6 |
| 20260506182016 | 72 | 0 | 6.0 | 17.0 | 0.00 | 0.00 | 0.00 | 57 | 1005.7 |
| 20260506181515 | 72 | 0 | 7.0 | 17.0 | 0.00 | 0.00 | 0.00 | 57 | 1005.7 |
| 20260506181037 | 72 | 0 | 6.0 | 16.0 | 0.00 | 0.00 | 0.00 | 56 | 1005.7 |
| 20260506180516 | 72 | 0 | 5.0 | 18.0 | 0.00 | 0.00 | 0.00 | 56 | 1005.7 |
| 20260506180015 | 73 | 0 | 4.0 | 14.0 | 0.00 | 0.00 | 0.00 | 57 | 1005.9 |
| 20260506175516 | 73 | 0 | 9.0 | 21.0 | 0.00 | 0.00 | 0.00 | 57 | 1005.9 |
| 20260506175016 | 73 | 0 | 7.0 | 17.0 | 0.00 | 0.00 | 0.00 | 57 | 1005.9 |
| 20260506174516 | 72 | 0 | 6.0 | 17.0 | 0.00 | 0.00 | 0.00 | 58 | 1006.1 |
| 20260506174016 | 72 | 0 | 8.0 | 19.0 | 0.00 | 0.00 | 0.00 | 58 | 1006.2 |
| 20260506173516 | 72 | 0 | 8.0 | 16.0 | 0.00 | 0.00 | 0.00 | 59 | 1006.2 |
| 20260506173016 | 72 | 0 | 8.0 | 19.0 | 0.00 | 0.00 | 0.00 | 59 | 1006.3 |
| 20260506172516 | 72 | 0 | 8.0 | 17.0 | 0.00 | 0.00 | 0.00 | 59 | 1006.3 |
| 20260506172016 | 72 | 0 | 8.0 | 23.0 | 0.00 | 0.00 | 0.00 | 59 | 1006.3 |
| 20260506171516 | 72 | 0 | 8.0 | 24.0 | 0.00 | 0.00 | 0.00 | 58 | 1006.2 |
| 20260506171016 | 72 | 0 | 6.0 | 14.0 | 0.00 | 0.00 | 0.00 | 59 | 1006.1 |
| 20260506170516 | 72 | 0 | 6.0 | 14.0 | 0.00 | 0.00 | 0.00 | 59 | 1006.3 |
| 20260506170016 | 72 | 0 | 8.0 | 22.0 | 0.00 | 0.00 | 0.00 | 59 | 1006.3 |
| 20260506165516 | 72 | 0 | 5.0 | 15.0 | 0.00 | 0.00 | 0.00 | 58 | 1006.3 |
| 20260506165036 | 72 | 0 | 8.0 | 20.0 | 0.00 | 0.00 | 0.00 | 58 | 1006.4 |
| 20260506164516 | 72 | 0 | 8.0 | 19.0 | 0.00 | 0.00 | 0.00 | 58 | 1006.5 |
| 20260506164016 | 72 | 0 | 4.0 | 13.0 | 0.00 | 0.00 | 0.00 | 59 | 1006.5 |
| 20260506163536 | 72 | 0 | 6.0 | 22.0 | 0.00 | 0.00 | 0.00 | 58 | 1006.6 |
| 20260506163016 | 72 | 0 | 4.0 | 11.0 | 0.00 | 0.00 | 0.00 | 58 | 1006.6 |
| 20260506162515 | 72 | 0 | 8.0 | 19.0 | 0.00 | 0.00 | 0.00 | 58 | 1006.7 |
| 20260506162016 | 72 | 0 | 8.0 | 17.0 | 0.00 | 0.00 | 0.00 | 58 | 1006.9 |
| 20260506161516 | 72 | 0 | 5.0 | 14.0 | 0.00 | 0.00 | 0.00 | 58 | 1006.9 |
| 20260506161016 | 72 | 0 | 6.0 | 12.0 | 0.00 | 0.00 | 0.00 | 58 | 1007.0 |
| 20260506160535 | 72 | 0 | 3.0 | 10.0 | 0.00 | 0.00 | 0.00 | 58 | 1007.1 |
| 20260506160037 | 72 | 0 | 5.0 | 18.0 | 0.00 | 0.00 | 0.00 | 58 | 1007.2 |
| 20260506155516 | 72 | 0 | 6.0 | 13.0 | 0.00 | 0.00 | 0.00 | 58 | 1007.3 |
| 20260506155015 | 72 | 0 | 4.0 | 14.0 | 0.00 | 0.00 | 0.00 | 58 | 1007.4 |
| 20260506154535 | 72 | 0 | 5.0 | 22.0 | 0.00 | 0.00 | 0.00 | 57 | 1007.4 |
| 20260506154016 | 73 | 135 | 8.0 | 22.0 | 0.00 | 0.00 | 0.00 | 56 | 1007.5 |
| 20260506153536 | 73 | 0 | 9.0 | 16.0 | 0.00 | 0.00 | 0.00 | 56 | 1007.6 |
| 20260506153016 | 73 | 0 | 5.0 | 16.0 | 0.00 | 0.00 | 0.00 | 56 | 1007.6 |
| 20260506152515 | 73 | 0 | 6.0 | 19.0 | 0.00 | 0.00 | 0.00 | 56 | 1007.6 |
| 20260506152015 | 73 | 0 | 6.0 | 17.0 | 0.00 | 0.00 | 0.00 | 56 | 1007.7 |
| 20260506151538 | 73 | 135 | 7.0 | 21.0 | 0.00 | 0.00 | 0.00 | 56 | 1007.8 |
| 20260506151016 | 73 | 0 | 7.0 | 20.0 | 0.00 | 0.00 | 0.00 | 56 | 1007.9 |
| 20260506150515 | 73 | 0 | 7.0 | 20.0 | 0.00 | 0.00 | 0.00 | 57 | 1007.7 |
| 20260506150015 | 73 | 0 | 4.0 | 12.0 | 0.00 | 0.00 | 0.00 | 58 | 1007.9 |
| 20260506145515 | 72 | 0 | 6.0 | 19.0 | 0.00 | 0.00 | 0.00 | 58 | 1007.8 |
| 20260506145015 | 72 | 0 | 3.0 | 11.0 | 0.00 | 0.00 | 0.00 | 59 | 1007.7 |
| 20260506144515 | 72 | 0 | 4.0 | 11.0 | 0.00 | 0.00 | 0.00 | 59 | 1007.8 |
| 20260506144015 | 72 | 0 | 4.0 | 15.0 | 0.00 | 0.00 | 0.00 | 59 | 1007.8 |
| 20260506143536 | 72 | 135 | 4.0 | 14.0 | 0.00 | 0.00 | 0.00 | 60 | 1007.7 |
| 20260506143015 | 71 | 203 | 5.0 | 16.0 | 0.00 | 0.00 | 0.00 | 61 | 1007.7 |
| 20260506142515 | 71 | 0 | 6.0 | 17.0 | 0.00 | 0.00 | 0.00 | 61 | 1007.6 |
| 20260506142015 | 71 | 0 | 4.0 | 12.0 | 0.00 | 0.00 | 0.00 | 62 | 1007.7 |
| 20260506141518 | 71 | 0 | 5.0 | 16.0 | 0.00 | 0.00 | 0.00 | 62 | 1007.6 |
| 20260506141035 | 70 | 0 | 5.0 | 15.0 | 0.00 | 0.00 | 0.00 | 64 | 1007.6 |
| 20260506140515 | 69 | 0 | 7.0 | 17.0 | 0.00 | 0.00 | 0.00 | 64 | 1007.8 |
| 20260506140015 | 69 | 0 | 4.0 | 14.0 | 0.00 | 0.00 | 0.00 | 65 | 1007.7 |
| 20260506135516 | 69 | 0 | 4.0 | 17.0 | 0.00 | 0.00 | 0.00 | 66 | 1007.8 |
| 20260506135015 | 68 | 0 | 6.0 | 17.0 | 0.00 | 0.00 | 0.00 | 66 | 1007.6 |
| 20260506134515 | 68 | 0 | 4.0 | 13.0 | 0.00 | 0.00 | 0.00 | 67 | 1007.8 |
| 20260506134015 | 68 | 0 | 4.0 | 13.0 | 0.00 | 0.00 | 0.00 | 67 | 1008.2 |
| 20260506133515 | 68 | 0 | 2.0 | 7.0 | 0.00 | 0.00 | 0.00 | 68 | 1008.4 |
| 20260506133015 | 68 | 0 | 3.0 | 16.0 | 0.00 | 0.00 | 0.00 | 68 | 1008.4 |
| 20260506132536 | 67 | 0 | 4.0 | 12.0 | 0.00 | 0.00 | 0.00 | 68 | 1008.4 |
| 20260506132035 | 67 | 0 | 5.0 | 16.0 | 0.00 | 0.00 | 0.00 | 69 | 1008.3 |
| 20260506131515 | 67 | 0 | 6.0 | 13.0 | 0.00 | 0.00 | 0.00 | 69 | 1008.2 |
| 20260506131015 | 67 | 0 | 6.0 | 16.0 | 0.00 | 0.00 | 0.00 | 69 | 1008.2 |
| 20260506130515 | 66 | 158 | 6.0 | 15.0 | 0.00 | 0.00 | 0.00 | 71 | 1008.2 |
| 20260506130036 | 66 | 0 | 5.0 | 11.0 | 0.00 | 0.00 | 0.00 | 71 | 1008.3 |
| 20260506125515 | 66 | 0 | 5.0 | 14.0 | 0.00 | 0.00 | 0.00 | 72 | 1008.5 |
| 20260506125015 | 65 | 158 | 6.0 | 13.0 | 0.00 | 0.00 | 0.00 | 73 | 1008.4 |
| 20260506124536 | 65 | 158 | 4.0 | 12.0 | 0.00 | 0.00 | 0.00 | 74 | 1008.4 |
| 20260506124015 | 64 | 158 | 5.0 | 17.0 | 0.00 | 0.00 | 0.00 | 75 | 1008.7 |
| 20260506123515 | 64 | 0 | 3.0 | 10.0 | 0.00 | 0.00 | 0.00 | 76 | 1008.5 |
| 20260506123036 | 64 | 0 | 4.0 | 12.0 | 0.00 | 0.00 | 0.00 | 76 | 1008.5 |
| 20260506122535 | 63 | 0 | 4.0 | 14.0 | 0.00 | 0.00 | 0.00 | 76 | 1008.4 |
| 20260506122016 | 63 | 0 | 4.0 | 12.0 | 0.00 | 0.00 | 0.00 | 77 | 1008.3 |
| 20260506121515 | 63 | 0 | 4.0 | 10.0 | 0.00 | 0.00 | 0.00 | 77 | 1008.4 |
| 20260506121015 | 63 | 0 | 4.0 | 9.0 | 0.00 | 0.00 | 0.00 | 78 | 1008.4 |
| 20260506120515 | 62 | 0 | 7.0 | 19.0 | 0.00 | 0.00 | 0.00 | 78 | 1008.6 |
| 20260506120015 | 62 | 0 | 6.0 | 15.0 | 0.00 | 0.00 | 0.00 | 78 | 1008.8 |
| 20260506115515 | 62 | 0 | 6.0 | 12.0 | 0.00 | 0.00 | 0.00 | 78 | 1008.8 |
| 20260506115016 | 62 | 0 | 5.0 | 14.0 | 0.00 | 0.00 | 0.00 | 78 | 1008.6 |
| 20260506114515 | 62 | 0 | 6.0 | 14.0 | 0.00 | 0.00 | 0.00 | 78 | 1008.9 |
| 20260506114015 | 62 | 0 | 5.0 | 16.0 | 0.00 | 0.00 | 0.00 | 78 | 1009.1 |
| 20260506113515 | 62 | 0 | 4.0 | 11.0 | 0.00 | 0.00 | 0.00 | 79 | 1009.0 |
| 20260506113015 | 62 | 0 | 4.0 | 12.0 | 0.00 | 0.00 | 0.00 | 78 | 1008.9 |
| 20260506112515 | 62 | 158 | 4.0 | 14.0 | 0.00 | 0.00 | 0.00 | 79 | 1008.8 |
| 20260506112016 | 62 | 135 | 5.0 | 12.0 | 0.00 | 0.00 | 0.00 | 79 | 1008.8 |
| 20260506111515 | 62 | 158 | 4.0 | 12.0 | 0.00 | 0.00 | 0.00 | 79 | 1008.7 |
| 20260506111015 | 61 | 158 | 4.0 | 16.0 | 0.00 | 0.00 | 0.00 | 79 | 1008.6 |
| 20260506110515 | 61 | 158 | 6.0 | 14.0 | 0.00 | 0.00 | 0.00 | 79 | 1008.7 |
| 20260506110015 | 61 | 158 | 5.0 | 15.0 | 0.00 | 0.00 | 0.00 | 79 | 1008.6 |
| 20260506105536 | 61 | 0 | 6.0 | 12.0 | 0.00 | 0.00 | 0.00 | 79 | 1008.7 |
| 20260506105015 | 61 | 0 | 6.0 | 15.0 | 0.00 | 0.00 | 0.00 | 79 | 1008.7 |
| 20260506104515 | 61 | 0 | 4.0 | 17.0 | 0.00 | 0.00 | 0.00 | 79 | 1008.7 |
| 20260506104016 | 61 | 0 | 4.0 | 13.0 | 0.00 | 0.00 | 0.00 | 79 | 1008.8 |
| 20260506103515 | 61 | 0 | 3.0 | 11.0 | 0.00 | 0.00 | 0.00 | 79 | 1008.9 |
| 20260506103015 | 61 | 0 | 3.0 | 13.0 | 0.00 | 0.00 | 0.00 | 79 | 1008.9 |
| 20260506102515 | 61 | 0 | 3.0 | 9.0 | 0.00 | 0.00 | 0.00 | 79 | 1008.8 |
| 20260506102015 | 61 | 0 | 3.0 | 11.0 | 0.00 | 0.00 | 0.00 | 79 | 1008.8 |
| 20260506101515 | 61 | 0 | 4.0 | 10.0 | 0.00 | 0.00 | 0.00 | 79 | 1008.6 |
| 20260506101016 | 61 | 0 | 3.0 | 12.0 | 0.00 | 0.00 | 0.00 | 79 | 1008.7 |
| 20260506100515 | 61 | 0 | 4.0 | 12.0 | 0.00 | 0.00 | 0.00 | 79 | 1008.6 |
| 20260506100015 | 61 | 0 | 3.0 | 15.0 | 0.00 | 0.00 | 0.00 | 79 | 1008.5 |
| 20260506095515 | 61 | 0 | 3.0 | 13.0 | 0.00 | 0.00 | 0.00 | 79 | 1008.4 |
| 20260506095016 | 61 | 0 | 5.0 | 11.0 | 0.00 | 0.00 | 0.00 | 78 | 1008.5 |
| 20260506094517 | 61 | 0 | 3.0 | 13.0 | 0.00 | 0.00 | 0.00 | 78 | 1008.5 |
| 20260506094015 | 61 | 0 | 3.0 | 14.0 | 0.00 | 0.00 | 0.00 | 78 | 1008.5 |
| 20260506093515 | 61 | 0 | 2.0 | 9.0 | 0.00 | 0.00 | 0.00 | 78 | 1008.6 |
| 20260506093015 | 61 | 0 | 4.0 | 12.0 | 0.00 | 0.00 | 0.00 | 77 | 1008.5 |
| 20260506092515 | 61 | 0 | 3.0 | 13.0 | 0.00 | 0.00 | 0.00 | 77 | 1008.5 |
| 20260506092016 | 62 | 0 | 3.0 | 12.0 | 0.00 | 0.00 | 0.00 | 77 | 1008.5 |
| 20260506091515 | 62 | 0 | 4.0 | 12.0 | 0.00 | 0.00 | 0.00 | 77 | 1008.4 |
| 20260506091015 | 62 | 0 | 5.0 | 12.0 | 0.00 | 0.00 | 0.00 | 77 | 1008.4 |
| 20260506090535 | 62 | 0 | 4.0 | 12.0 | 0.00 | 0.00 | 0.00 | 77 | 1008.5 |
| 20260506090015 | 62 | 0 | 4.0 | 12.0 | 0.00 | 0.00 | 0.00 | 76 | 1008.6 |
| 20260506085515 | 62 | 0 | 4.0 | 15.0 | 0.00 | 0.00 | 0.00 | 76 | 1008.5 |
| 20260506085015 | 62 | 0 | 5.0 | 14.0 | 0.00 | 0.00 | 0.00 | 76 | 1008.5 |
| 20260506084535 | 62 | 0 | 3.0 | 11.0 | 0.00 | 0.00 | 0.00 | 76 | 1008.5 |
| 20260506084015 | 62 | 0 | 4.0 | 13.0 | 0.00 | 0.00 | 0.00 | 76 | 1008.5 |
| 20260506083556 | 62 | 0 | 4.0 | 12.0 | 0.00 | 0.00 | 0.00 | 76 | 1008.6 |
| 20260506083015 | 62 | 0 | 3.0 | 11.0 | 0.00 | 0.00 | 0.00 | 76 | 1008.6 |
| 20260506082515 | 62 | 0 | 3.0 | 15.0 | 0.00 | 0.00 | 0.00 | 75 | 1008.5 |
| 20260506082036 | 62 | 0 | 3.0 | 9.0 | 0.00 | 0.00 | 0.00 | 75 | 1008.5 |
| 20260506081557 | 62 | 135 | 4.0 | 11.0 | 0.00 | 0.00 | 0.00 | 75 | 1008.5 |
| 20260506081017 | 62 | 158 | 5.0 | 13.0 | 0.00 | 0.00 | 0.00 | 75 | 1008.5 |
| 20260506080516 | 62 | 158 | 4.0 | 12.0 | 0.00 | 0.00 | 0.00 | 75 | 1008.4 |
| 20260506073517 | 63 | 158 | 3.0 | 9.0 | 0.00 | 0.00 | 0.00 | 73 | 1008.4 |
| 20260506073017 | 63 | 135 | 3.0 | 9.0 | 0.00 | 0.00 | 0.00 | 73 | 1008.4 |
| 20260506072517 | 63 | 135 | 4.0 | 11.0 | 0.00 | 0.00 | 0.00 | 73 | 1008.4 |
| 20260506072017 | 63 | 158 | 3.0 | 13.0 | 0.00 | 0.00 | 0.00 | 73 | 1008.4 |
| 20260506071517 | 63 | 135 | 4.0 | 11.0 | 0.00 | 0.00 | 0.00 | 72 | 1008.3 |
| 20260506071036 | 63 | 158 | 3.0 | 10.0 | 0.00 | 0.00 | 0.00 | 72 | 1008.3 |
| 20260506070537 | 63 | 158 | 3.0 | 9.0 | 0.00 | 0.00 | 0.00 | 72 | 1008.3 |
| 20260506062517 | 63 | 0 | 3.0 | 12.0 | 0.00 | 0.00 | 0.00 | 70 | 1008.1 |
| 20260506062017 | 63 | 0 | 6.0 | 18.0 | 0.00 | 0.00 | 0.00 | 69 | 1008.1 |
| 20260506061516 | 63 | 0 | 5.0 | 14.0 | 0.00 | 0.00 | 0.00 | 69 | 1008.0 |
| 20260506061016 | 63 | 0 | 5.0 | 17.0 | 0.00 | 0.00 | 0.00 | 69 | 1008.0 |
| 20260506060517 | 63 | 0 | 3.0 | 10.0 | 0.00 | 0.00 | 0.00 | 69 | 1008.0 |